RH
58 58 58 50 52 43 46 47 51 48 42 51 48 44 38 41 74 81 80 85 99 100 99 89 85 82 78 75 71 66 61 62 59 60 59 57 53 50 47 43 41 38 35 35
58 66 55 50 54 52 54 58 55 52 46 46 44 46 52 69 86 95 95 96 98 98 96 88 77 73 71 68 65 62 60 59 59 59 54 51 51 52 50 50 49 45 46 41
58 43 54 53 58 61 61 62 62 60 52 47 50 48 65 64 78 91 96 98 99 100 99 91 79 74 70 67 64 64 63 59 54 52 53 56 60 58 60 54 48 49 51 53
60 53 56 60 60 57 68 55 56 60 56 60 51 61 58 69 71 83 95 100 99 99 97 89 84 78 76 74 72 67 68 67 66 59 52 43 44 44 65 60 50 51 54 62
47 54 61 61 52 54 52 52 53 56 63 70 61 66 69 66 68 94 95 100 99 94 98 83 80 80 80 80 80 74 72 71 67 68 68 69 54 40 75 80 69 59 62 69
48 52 47 47 57 48 53 58 62 70 70 77 57 57 63 69 69 88 94 100 98 98 100 100 100 98 92 88 86 82 80 74 73 66 70 72 70 63 66 63 66 58 59 69
59 57 52 50 58 62 52 61 66 78 86 67 60 70 47 78 74 74 82 98 99 99 100 100 100 100 100 95 88 88 86 81 69 75 69 70 67 65 69 79 65 68 75 74
66 52 57 50 46 53 64 53 60 74 74 58 62 68 55 72 80 82 91 99 100 99 99 98 98 98 97 99 92 91 88 82 78 77 75 71 86 82 79 73 77 85 92 89
67 58 60 62 56 48 70 73 52 71 82 87 54 56 76 79 83 89 97 98 100 99 99 98 89 88 91 88 89 90 91 89 88 85 84 76 75 81 80 77 87 95 100 97
51 57 54 61 53 56 58 54 84 95 85 80 55 58 62 99 99 94 96 99 100 99 100 98 92 88 88 91 89 90 92 91 92 98 97 98 93 91 89 90 94 100 100 100
52 52 61 65 66 66 67 69 69 69 82 68 56 56 77 88 77 87 88 100 99 99 96 89 94 90 91 88 89 90 93 94 97 93 92 92 93 85 90 92 95 100 100 100
55 65 67 60 64 52 54 61 64 86 89 93 90 62 67 64 65 78 88 100 100 100 88 83 88 96 99 94 95 97 96 97 99 100 97 99 95 93 91 90 92 90 92 97
71 84 76 74 79 71 71 68 66 76 83 80 89 54 72 70 74 85 90 93 95 94 92 88 98 100 100 100 100 99 98 100 100 99 99 97 98 94 91 91 94 95 94 97
71 84 70 70 73 71 89 75 68 78 85 74 65 53 78 77 84 80 86 88 90 92 93 95 100 100 100 100 100 97 98 98 98 97 95 91 88 90 90 92 91 91 94 97
80 74 74 64 58 64 59 59 63 76 72 78 55 62 55 75 80 82 85 90 91 92 95 99 100 100 100 100 100 98 98 96 94 93 77 64 68 72 69 67 64 67 74 81
87 78 77 74 71 74 79 68 67 65 66 72 70 80 65 68 84 85 86 87 86 93 96 100 100 100 100 100 100 95 96 98 93 89 84 74 60 36 33 32 30 29 29 30
93 89 94 81 68 84 94 71 66 62 61 64 78 64 74 79 81 84 86 85 87 94 97 100 99 99 100 100 96 92 93 91 72 41 31 31 30 28 27 27 26 25 23 22
92 96 97 80 82 94 45 61 61 67 61 58 61 73 72 72 83 88 88 87 91 95 100 99 99 100 96 96 90 90 91 73 52 40 35 30 27 27 27 26 21 18 16 16
73 79 85 90 85 69 52 62 77 79 64 66 66 79 92 98 94 100 92 84 86 97 99 98 100 93 93 93 93 93 88 55 46 41 34 25 22 21 21 18 15 14 12 10
81 76 86 96 90 79 64 62 60 53 70 68 75 87 94 89 97 83 98 82 85 90 100 98 95 94 94 92 94 83 66 51 43 38 33 28 24 20 18 16 14 12 10 9
96 97 96 95 90 71 59 60 51 72 68 76 84 89 91 88 80 96 94 89 85 87 93 95 98 95 91 78 74 68 58 49 48 43 40 36 27 22 17 13 12 10 10 10
77 86 85 88 88 84 64 61 60 72 93 91 94 96 94 85 87 98 94 91 92 92 94 96 94 92 90 80 65 57 44 47 47 43 39 34 27 22 16 11 10 12 11 10
86 82 85 72 74 84 88 85 72 67 83 95 96 93 88 97 96 96 98 94 93 90 93 94 94 92 87 82 67 50 48 55 52 48 41 34 31 23 16 13 15 25 27 22
70 70 72 71 77 79 92 82 74 70 73 85 86 90 91 89 94 100 92 96 95 94 92 94 95 90 86 79 54 48 52 51 49 45 42 38 30 25 22 40 69 98 100 100
64 66 72 78 89 92 91 84 74 73 77 88 91 87 83 79 92 85 93 96 93 95 96 87 80 75 68 57 55 53 53 51 44 40 36 35 33 30 37 48 96 100 100 99
73 82 74 66 64 66 75 81 78 72 76 80 89 99 91 81 84 88 93 94 94 83 76 77 64 45 44 51 51 52 48 45 34 28 29 30 29 34 39 46 40 36 45 99
Wind_Speed
4 5 12 13 9 3 3 2 6 6 9 6 5 12 13 9 15 18 19 15 15 15 13 13 14 11 9 7 6 5 5 3 3 8 10 9 8 8 10 12 13 15 18 19
4 10 12 6 8 8 6 7 12 7 5 6 8 15 5 12 11 12 14 15 13 12 13 13 13 12 13 12 12 11 11 9 9 7 3 6 8 8 10 9 10 12 13 16
6 1 7 11 7 7 4 10 7 8 6 4 6 1 4 8 11 12 15 14 14 13 11 11 13 16 14 13 13 13 13 13 13 13 12 7 3 5 9 12 11 12 12 14
6 3 6 8 5 7 5 10 9 7 5 4 5 5 7 3 8 11 11 11 9 9 9 11 12 14 17 18 17 14 13 13 12 12 13 15 18 12 16 15 13 12 13 14
4 5 5 7 8 7 4 5 5 1 3 4 4 5 4 1 1 4 3 5 6 9 11 13 14 15 15 17 20 19 19 19 16 15 16 15 21 21 19 17 16 14 13 14
2 1 4 4 3 7 6 4 4 3 0 6 7 8 6 5 4 4 5 4 4 5 6 8 9 9 10 8 8 16 20 18 18 16 13 17 17 22 21 18 18 18 18 17
1 6 2 4 4 2 6 5 2 2 3 5 3 5 10 10 7 7 8 6 2 1 3 6 8 9 10 12 12 9 10 17 20 19 16 8 11 17 21 22 22 21 20 19
8 4 12 8 16 7 9 10 5 6 4 1 1 6 2 6 9 8 8 7 4 3 3 7 11 13 15 16 16 16 12 8 9 10 13 16 16 16 18 20 20 20 21 21
6 4 2 3 4 13 6 6 8 6 3 4 5 5 4 10 9 11 11 10 6 2 2 5 8 10 12 13 15 15 15 15 15 12 12 12 13 14 14 14 16 17 18 19
5 2 5 5 6 3 5 10 3 3 5 6 6 7 8 14 13 13 14 14 9 5 2 5 8 10 11 13 12 12 14 14 13 14 14 13 13 14 14 14 13 14 16 17
5 3 3 8 9 13 5 5 2 2 2 4 6 6 5 17 19 19 18 15 13 8 3 5 8 10 10 10 11 12 13 13 13 12 12 12 13 14 14 15 15 15 15 15
7 3 8 15 2 8 7 10 12 5 5 3 2 10 1 12 17 21 19 17 13 7 3 3 7 8 9 10 10 11 12 12 13 12 13 15 16 18 19 20 19 18 17 16
6 3 5 5 1 2 7 8 9 6 3 14 6 9 4 8 15 19 20 18 14 9 3 3 4 6 8 9 9 10 10 11 12 13 15 16 19 21 23 23 23 22 21 20
5 6 8 10 3 4 5 11 14 14 6 9 16 21 9 11 12 17 20 18 15 10 4 2 4 6 6 8 9 10 10 10 12 13 15 17 19 20 21 21 21 22 23 24
6 11 7 13 10 7 8 12 13 15 17 11 22 16 14 18 17 22 21 18 15 11 6 5 4 5 6 8 10 10 10 11 12 13 15 18 18 17 19 20 21 21 20 24
4 10 6 14 9 13 14 15 14 16 18 16 18 21 8 19 18 22 24 23 19 14 9 7 6 5 6 7 9 11 11 11 12 14 15 15 15 15 18 18 20 20 21 23
3 5 6 12 6 7 10 19 18 14 17 15 16 19 10 11 20 28 27 23 19 16 12 10 7 6 6 5 7 11 12 12 13 13 14 15 15 17 18 18 18 19 21 23
7 5 3 7 5 12 5 2 6 14 17 15 11 7 18 17 14 18 21 23 19 16 14 11 9 7 7 5 6 7 9 10 11 12 14 15 15 16 16 16 18 20 21 24
16 12 9 7 8 6 7 6 7 7 8 12 12 12 16 21 18 8 17 19 19 16 16 14 10 9 7 4 4 4 5 8 10 13 15 16 16 16 16 17 19 21 22 24
14 16 14 5 8 8 3 2 6 4 9 14 17 18 21 23 9 7 19 19 20 16 16 14 12 9 6 5 4 4 6 8 11 13 14 15 15 16 17 17 19 23 23 25
5 4 9 4 3 5 5 7 6 5 4 10 18 23 26 11 3 23 26 21 18 17 17 15 12 9 7 7 5 5 8 10 11 10 11 13 15 17 18 19 21 22 23 24
9 7 4 3 6 10 11 8 8 1 2 10 17 21 20 12 18 29 28 25 23 21 18 15 12 10 9 7 5 7 8 10 8 8 10 12 15 17 18 19 21 23 24 26
6 5 6 8 4 1 3 2 4 6 7 15 19 22 23 22 27 30 28 25 21 19 18 15 13 11 9 6 6 7 8 8 7 7 9 12 14 16 18 20 21 22 23 26
3 2 3 3 4 3 6 8 6 6 10 17 21 23 25 27 30 29 28 26 23 19 17 15 14 12 10 9 8 7 8 6 5 6 8 10 12 15 18 18 19 19 20 20
3 8 5 2 1 1 9 14 14 12 13 17 20 22 26 27 29 28 29 26 20 19 18 16 14 14 13 11 9 8 6 5 5 6 8 9 11 14 15 17 16 16 18 20
6 5 5 5 8 4 3 21 18 17 18 20 24 25 24 26 28 30 29 24 21 20 19 18 16 15 14 12 10 9 7 5 5 5 7 9 10 11 13 13 15 16 17 16
Wind_Direction
171 183 210 207 196 145 143 223 274 275 272 299 276 302 293 340 45 24 20 61 53 53 44 36 32 31 35 31 25 27 20 354 256 226 219 217 228 240 247 251 254 257 261 263
132 236 223 137 174 202 232 271 270 289 269 287 301 305 55 62 69 55 56 55 51 45 39 32 27 23 22 26 31 23 21 24 14 351 282 241 240 249 262 267 268 267 266 267
176 203 172 175 168 191 218 241 256 268 316 267 320 113 180 84 80 65 59 59 54 49 40 30 29 29 29 24 20 25 27 32 38 30 2 338 263 267 279 275 277 275 274 273
229 202 133 167 189 178 236 222 241 263 307 295 0 296 206 157 64 66 66 72 59 45 37 33 29 28 29 30 30 15 21 7 11 14 17 2 344 352 331 321 311 306 294 289
216 167 163 207 228 171 240 167 206 226 237 306 223 258 144 149 114 98 58 82 83 72 53 43 32 19 13 12 12 17 12 15 7 359 335 341 344 330 325 326 325 319 313 300
196 173 158 187 81 181 135 104 61 57 359 266 230 222 171 190 199 195 178 164 123 69 44 44 51 52 46 30 359 353 356 354 356 349 326 322 325 315 318 326 324 325 319 313
181 219 171 165 137 69 168 149 278 249 191 256 102 219 275 181 208 212 181 159 161 72 44 37 35 30 22 20 21 9 345 341 339 340 343 343 308 309 325 334 332 328 325 321
190 242 181 195 214 186 188 208 208 241 210 227 190 239 273 170 171 158 160 174 155 112 51 28 15 7 3 356 1 360 355 353 347 345 332 323 335 339 336 333 334 334 332 331
169 251 179 177 150 181 171 206 232 265 182 248 230 248 214 167 180 175 193 192 170 169 349 355 356 359 358 353 352 352 350 355 357 0 356 347 343 347 350 340 341 340 340 339
195 178 219 138 112 71 193 148 130 176 235 234 229 253 245 193 190 194 202 192 181 200 263 341 356 2 357 354 357 356 357 0 1 3 3 2 4 6 7 4 2 359 356 353
163 222 160 148 204 174 165 200 166 191 218 254 271 253 206 200 192 198 200 189 189 192 231 340 353 354 353 353 358 4 8 9 10 17 18 16 15 18 18 19 17 17 14 11
208 202 233 221 58 204 199 197 193 213 208 223 326 267 245 205 191 194 188 178 183 187 216 344 353 356 3 10 15 16 17 16 20 22 30 35 39 40 39 34 30 27 28 26
173 202 241 218 260 298 207 197 198 210 230 239 250 269 121 158 174 189 181 175 172 172 181 343 24 31 20 21 27 28 26 33 37 40 42 44 46 47 46 42 38 38 39 41
208 189 241 247 222 162 199 215 215 210 232 262 249 273 196 197 196 197 183 172 163 163 162 101 63 52 39 36 37 41 43 44 45 47 46 46 45 45 46 45 42 40 41 45
173 256 232 251 239 217 241 241 223 216 228 236 269 253 235 200 194 193 172 163 157 162 156 132 101 77 60 52 51 50 45 48 49 49 47 44 43 42 45 43 42 41 43 46
175 253 245 261 237 227 238 241 241 238 245 250 254 263 220 209 194 166 172 169 167 168 157 140 120 101 82 60 53 54 51 48 47 46 46 44 40 38 42 42 41 38 41 46
189 212 197 254 241 218 245 239 230 234 234 232 237 245 166 170 178 181 177 172 168 163 156 146 147 138 113 75 67 56 48 51 53 49 48 50 46 44 41 41 41 39 40 43
214 207 219 256 210 231 249 171 226 235 244 220 241 191 186 187 171 164 171 165 162 161 154 157 163 162 132 96 71 55 53 56 52 52 51 49 46 46 45 42 43 44 41 41
211 220 241 243 231 290 266 200 190 187 256 200 200 150 136 131 127 128 172 176 171 163 160 166 161 131 120 106 88 69 66 62 63 58 53 49 49 48 48 46 46 47 45 44
217 225 224 203 193 227 244 177 145 139 272 191 171 165 157 149 172 174 168 171 166 163 161 154 145 138 131 127 122 113 88 71 62 57 54 52 52 49 47 48 49 48 47 47
180 182 220 162 187 278 221 155 153 175 271 168 178 168 166 174 176 159 165 162 163 158 153 150 148 144 134 118 108 112 96 80 66 60 62 57 54 51 48 49 52 52 52 52
212 180 205 177 209 248 152 126 192 149 113 161 160 160 156 148 138 157 161 159 157 156 158 158 156 152 140 119 105 106 95 80 67 59 56 53 50 50 49 48 50 51 48 47
210 198 181 195 209 346 185 62 194 173 169 169 158 168 168 147 150 156 160 158 159 159 159 159 163 159 152 142 123 112 97 84 72 60 54 50 47 46 46 47 46 44 42 43
228 195 159 147 182 215 223 217 193 200 178 175 180 175 168 157 158 158 159 159 160 160 160 161 162 162 158 151 136 125 109 102 90 73 61 52 47 45 44 45 44 43 39 36
204 157 164 266 244 211 241 214 199 177 167 165 172 175 172 166 164 164 161 160 160 162 161 158 158 155 152 149 143 134 123 108 95 78 66 58 52 49 48 48 49 47 45 42
195 173 185 213 195 193 208 194 184 172 167 170 171 170 174 174 167 165 161 162 163 162 161 158 154 152 146 143 142 136 127 112 92 80 71 63 56 56 53 51 45 42 44 46